Temp
10 13 10 9 9 9 8 9 9 12 12 9 10 10 13 14 13 13 12 11 11 10 9 9 8 8 7 7 7 6 7 7 8 9 10 10 12 12 12 12 12 12 12 12
12 11 8 8 8 8 9 10 11 11 11 9 10 10 12 14 13 12 12 12 11 10 9 9 8 7 7 6 6 6 6 6 6 8 9 10 11 12 12 12 13 11 11 12
11 9 7 8 9 8 9 10 9 8 8 10 9 12 15 15 12 11 10 10 9 9 9 8 7 7 6 6 5 5 4 5 6 6 8 9 10 11 11 11 12 12 12 11
9 7 7 8 9 7 7 8 8 7 7 8 9 8 13 14 13 13 12 11 10 9 8 7 6 5 5 5 4 4 4 3 4 5 5 8 9 10 11 11 11 12 11 11
8 8 7 8 8 7 7 8 7 7 7 7 10 7 12 14 13 13 13 11 9 8 7 5 5 4 4 4 3 3 2 2 2 3 4 5 8 9 10 11 11 11 11 11
8 5 6 7 7 7 7 8 9 8 7 7 9 8 11 12 11 12 11 10 8 6 5 4 3 2 1 1 1 1 1 1 1 2 3 4 4 9 9 9 11 11 11 11
9 8 6 5 7 8 8 6 8 8 8 9 9 8 10 12 12 10 9 8 6 5 4 2 1 0 -0 -1 -1 -1 -1 -0 -0 1 1 2 3 5 9 9 10 11 11 10
9 10 7 5 6 6 5 5 6 6 8 8 8 6 11 12 10 9 7 5 4 3 2 0 -1 -2 -2 -3 -3 -3 -2 -2 -1 -0 0 1 2 4 8 10 10 11 11 11
8 9 6 5 5 5 5 5 5 4 5 4 8 10 12 11 11 9 6 4 3 2 0 -1 -3 -3 -4 -4 -4 -4 -3 -3 -2 -1 -0 0 1 4 7 9 9 11 11 10
5 5 6 5 4 4 4 5 4 4 5 5 9 9 11 10 9 7 6 3 1 0 -2 -3 -4 -5 -5 -5 -5 -4 -4 -3 -3 -3 -1 0 1 3 5 8 9 9 10 10
4 3 7 5 6 7 4 4 3 4 5 5 5 9 11 9 9 5 5 1 -0 -2 -3 -4 -5 -6 -6 -6 -5 -5 -4 -3 -3 -3 -1 -0 1 4 6 7 9 9 9 10
4 2 4 7 5 4 5 4 4 4 5 5 4 5 10 11 9 6 3 -0 -1 -3 -4 -6 -6 -6 -6 -6 -6 -5 -4 -3 -3 -2 -1 0 2 5 7 7 8 9 9 9
2 2 4 6 4 4 4 5 4 3 2 2 3 7 12 10 7 4 1 -1 -2 -4 -5 -6 -7 -7 -7 -6 -5 -4 -3 -2 -2 -1 -1 1 3 5 6 8 8 8 8 7
2 1 2 8 8 4 4 5 5 1 2 3 4 5 6 5 3 2 0 -1 -3 -5 -6 -7 -7 -7 -7 -7 -6 -4 -2 -1 -1 -1 0 2 3 4 6 6 8 7 6 6
2 0 0 -0 1 2 3 3 3 2 1 1 5 2 2 2 2 1 -0 -2 -3 -5 -6 -7 -8 -8 -8 -7 -6 -5 -3 -2 -1 0 1 2 2 3 4 3 5 4 4 3
2 1 0 -2 1 1 1 3 3 2 1 1 2 1 5 5 3 0 -1 -3 -4 -6 -7 -8 -8 -8 -8 -7 -6 -5 -4 -3 -2 -1 -0 0 1 1 2 3 2 1 1 1
1 1 -1 3 1 1 2 4 5 3 2 1 1 5 3 2 1 -0 -3 -4 -4 -6 -7 -8 -8 -8 -8 -8 -7 -6 -5 -4 -3 -2 -2 -1 -0 -1 1 -0 1 -1 -0 -1
-0 -1 -1 1 -0 7 8 6 7 5 5 3 2 2 3 2 1 -0 -2 -4 -5 -6 -7 -8 -8 -8 -8 -7 -7 -6 -5 -4 -4 -4 -3 -3 -2 -0 -2 -1 -0 -3 -1 -2
0 0 -0 -0 1 6 9 5 5 4 6 7 5 5 5 3 3 -0 -2 -3 -4 -5 -7 -7 -8 -8 -8 -8 -7 -6 -6 -5 -4 -4 -4 -4 -3 -3 -3 -3 -3 -2 -2 -3
-0 0 -1 -3 1 6 9 5 4 5 5 7 6 5 4 2 4 2 -2 -3 -3 -4 -6 -6 -7 -7 -8 -8 -7 -6 -6 -6 -6 -5 -5 -4 -3 -3 -3 -3 -3 -3 -3 -3
-2 -2 -2 -1 0 3 6 3 3 5 8 5 4 3 2 2 0 -1 -2 -2 -3 -4 -4 -5 -5 -5 -6 -6 -6 -7 -7 -7 -6 -5 -5 -4 -3 -3 -3 -3 -3 -3 -3 -4
-1 -1 -2 -1 -1 2 3 2 5 7 4 4 3 2 1 1 -0 -1 -1 -2 -2 -2 -2 -3 -3 -4 -4 -5 -4 -5 -6 -7 -5 -4 -4 -4 -4 -3 -3 -3 -3 -4 -4 -4
1 4 3 1 3 5 3 6 5 4 4 2 3 3 2 0 -0 -1 -1 -1 -2 -2 -3 -2 -3 -3 -3 -4 -4 -4 -5 -4 -4 -3 -4 -3 -3 -3 -3 -3 -3 -4 -5 -3
-0 3 1 0 6 4 3 4 3 3 4 4 3 3 2 1 0 0 -0 -1 -1 -2 -2 -2 -2 -2 -3 -3 -4 -4 -4 -4 -3 -3 -4 -4 -4 -4 -4 -3 -4 -4 -3 -3
3 0 0 0 2 3 4 3 4 3 3 3 3 3 3 1 1 0 0 -0 -1 -1 -1 -2 -2 -2 -2 -3 -3 -3 -4 -3 -2 -3 -3 -3 -3 -3 -4 -4 -4 -4 -4 -3
-0 2 3 5 7 7 7 7 6 4 3 3 3 3 2 2 1 1 0 -0 -0 -1 -1 -1 -1 -1 -2 -2 -2 -2 -3 -3 -2 -2 -3 -3 -3 -3 -3 -4 -4 -4 -4 -4
Height
1501 1497 1504 1509 1510 1510 1509 1503 1493 1482 1480 1482 1471 1462 1450 1444 1443 1442 1442 1442 1442 1443 1443 1442 1440 1438 1435 1432 1428 1425 1421 1418 1418 1415 1414 1414 1412 1415 1417 1418 1426 1430 1435 1443
1499 1503 1512 1513 1512 1509 1503 1495 1486 1480 1478 1482 1468 1453 1443 1438 1439 1440 1440 1440 1441 1441 1440 1439 1437 1434 1431 1427 1424 1420 1416 1413 1410 1408 1407 1405 1406 1405 1409 1408 1414 1423 1419 1432
1500 1510 1513 1513 1508 1507 1500 1494 1492 1492 1480 1472 1469 1441 1428 1431 1438 1440 1441 1441 1441 1440 1438 1436 1433 1430 1426 1422 1418 1413 1409 1406 1402 1400 1398 1397 1395 1398 1394 1403 1401 1410 1417 1419
1506 1511 1513 1511 1507 1511 1502 1497 1495 1492 1486 1475 1472 1462 1435 1431 1435 1434 1436 1438 1438 1437 1435 1432 1428 1423 1419 1414 1409 1405 1401 1397 1394 1393 1390 1389 1388 1389 1385 1392 1392 1399 1407 1413
1508 1509 1509 1508 1509 1513 1503 1497 1495 1490 1487 1482 1465 1474 1437 1427 1429 1431 1434 1435 1436 1435 1432 1426 1420 1413 1408 1404 1400 1396 1393 1388 1385 1383 1382 1381 1379 1380 1382 1384 1384 1388 1397 1403
1509 1514 1513 1510 1510 1511 1507 1493 1484 1486 1484 1481 1464 1469 1442 1432 1437 1434 1435 1436 1434 1431 1425 1419 1413 1406 1400 1395 1390 1386 1382 1377 1376 1374 1372 1372 1371 1372 1375 1373 1366 1374 1388 1396
1504 1508 1513 1513 1508 1506 1503 1496 1481 1478 1474 1464 1467 1467 1445 1435 1435 1438 1437 1435 1432 1426 1419 1412 1405 1398 1391 1386 1381 1376 1372 1367 1366 1364 1363 1363 1363 1364 1366 1369 1371 1374 1380 1389
1505 1496 1509 1514 1513 1512 1510 1512 1504 1499 1475 1471 1467 1467 1438 1435 1439 1438 1439 1436 1429 1421 1414 1406 1398 1391 1384 1377 1371 1366 1362 1358 1357 1355 1353 1355 1356 1357 1360 1365 1366 1368 1377 1383
1506 1499 1511 1513 1515 1516 1511 1508 1513 1514 1497 1497 1458 1443 1430 1434 1432 1434 1434 1430 1424 1417 1410 1400 1391 1383 1375 1368 1361 1356 1351 1348 1347 1346 1345 1347 1347 1350 1353 1358 1363 1366 1372 1377
1520 1517 1508 1512 1516 1516 1514 1516 1511 1511 1499 1483 1449 1445 1429 1431 1430 1431 1427 1425 1419 1412 1403 1394 1385 1376 1367 1359 1351 1345 1341 1338 1336 1336 1337 1340 1341 1343 1347 1353 1358 1363 1367 1371
1522 1526 1507 1512 1507 1500 1511 1512 1516 1514 1504 1491 1474 1440 1431 1434 1430 1430 1426 1423 1415 1407 1398 1389 1380 1370 1360 1351 1343 1336 1332 1329 1328 1329 1330 1334 1336 1337 1343 1348 1354 1359 1361 1364
1524 1527 1515 1498 1507 1509 1507 1509 1508 1509 1495 1494 1494 1462 1434 1430 1431 1433 1429 1421 1414 1407 1396 1386 1376 1365 1355 1345 1336 1328 1323 1320 1321 1323 1325 1328 1331 1334 1339 1345 1350 1354 1359 1363
1527 1525 1513 1499 1508 1509 1505 1503 1505 1511 1515 1506 1496 1443 1426 1431 1433 1434 1428 1420 1412 1404 1394 1384 1374 1363 1352 1342 1331 1323 1316 1313 1315 1319 1322 1324 1328 1332 1337 1342 1347 1353 1357 1360
1527 1525 1518 1492 1489 1503 1501 1497 1499 1511 1508 1489 1473 1448 1439 1439 1438 1433 1427 1420 1411 1403 1394 1384 1374 1364 1353 1342 1332 1324 1317 1314 1315 1317 1320 1323 1327 1331 1336 1339 1346 1351 1356 1360
1525 1524 1521 1514 1507 1504 1497 1495 1496 1496 1496 1495 1453 1466 1451 1447 1441 1435 1429 1420 1410 1402 1393 1384 1375 1366 1356 1345 1336 1328 1323 1320 1319 1319 1321 1325 1328 1332 1336 1341 1346 1351 1355 1360
1524 1518 1519 1513 1500 1501 1494 1485 1484 1487 1488 1483 1475 1467 1449 1445 1440 1435 1430 1422 1412 1404 1396 1388 1379 1370 1360 1351 1343 1336 1330 1326 1324 1323 1325 1328 1332 1336 1340 1344 1347 1354 1358 1363
1522 1521 1522 1494 1501 1497 1483 1462 1463 1469 1470 1472 1469 1447 1444 1442 1440 1438 1432 1425 1416 1407 1399 1391 1383 1375 1367 1358 1351 1344 1339 1335 1331 1330 1332 1335 1339 1341 1345 1352 1353 1362 1364 1371
1518 1524 1524 1507 1502 1466 1450 1455 1454 1458 1455 1459 1455 1448 1448 1445 1440 1438 1435 1428 1419 1410 1402 1394 1387 1380 1373 1366 1359 1354 1348 1345 1342 1340 1341 1344 1345 1347 1355 1358 1360 1370 1370 1381
1518 1518 1518 1514 1505 1467 1442 1453 1456 1458 1444 1443 1446 1446 1445 1442 1436 1438 1435 1430 1424 1415 1407 1400 1392 1386 1380 1373 1368 1363 1359 1356 1353 1351 1352 1354 1355 1357 1361 1366 1373 1374 1381 1391
1518 1519 1521 1527 1503 1467 1439 1451 1454 1454 1447 1440 1443 1444 1444 1442 1433 1437 1435 1431 1426 1419 1411 1405 1397 1392 1387 1381 1377 1372 1369 1367 1365 1366 1366 1368 1369 1370 1372 1378 1382 1384 1393 1399
1515 1519 1517 1512 1504 1471 1445 1451 1453 1454 1437 1439 1441 1442 1442 1442 1442 1439 1437 1433 1429 1423 1417 1411 1406 1399 1395 1391 1386 1381 1379 1377 1378 1378 1378 1379 1381 1383 1386 1389 1394 1397 1402 1408
1493 1501 1505 1503 1505 1474 1445 1452 1447 1435 1435 1436 1437 1438 1439 1439 1438 1436 1436 1434 1431 1427 1422 1417 1413 1409 1405 1401 1398 1393 1390 1390 1388 1388 1388 1389 1391 1393 1396 1399 1403 1407 1411 1414
1481 1463 1468 1470 1450 1436 1437 1431 1430 1431 1432 1434 1434 1435 1435 1435 1435 1434 1434 1434 1432 1430 1427 1424 1420 1417 1414 1410 1408 1405 1404 1404 1403 1402 1401 1401 1403 1404 1407 1409 1411 1414 1418 1422
1463 1460 1461 1460 1425 1429 1432 1428 1428 1428 1429 1429 1430 1430 1432 1432 1432 1432 1432 1433 1432 1432 1430 1428 1426 1423 1421 1419 1417 1415 1414 1414 1413 1412 1412 1414 1415 1416 1418 1420 1422 1424 1427 1429
1447 1455 1451 1443 1428 1425 1420 1419 1420 1421 1423 1424 1425 1427 1428 1429 1430 1430 1431 1431 1432 1432 1432 1431 1430 1428 1426 1425 1424 1423 1423 1423 1422 1421 1421 1422 1422 1424 1425 1426 1428 1431 1432 1434
1436 1431 1434 1418 1412 1415 1413 1414 1414 1415 1415 1417 1419 1421 1423 1426 1427 1428 1429 1430 1430 1431 1432 1431 1431 1431 1430 1429 1429 1428 1428 1429 1428 1427 1427 1428 1428 1429 1430 1431 1432 1433 1435 1436
Wind_Speed
4 4 7 9 7 5 8 13 18 16 15 11 14 25 23 21 11 9 6 8 9 9 10 11 13 16 19 20 21 21 22 23 25 33 34 41 49 43 57 60 62 57 54 50
3 5 5 5 4 7 11 17 15 10 18 16 19 28 23 10 8 6 10 10 12 13 14 17 18 21 24 25 26 25 24 24 24 33 39 32 39 50 46 53 49 47 60 52
4 3 4 4 6 9 14 10 14 17 25 14 11 16 2 5 5 8 12 13 13 15 19 23 25 30 31 31 30 28 27 27 28 28 39 45 43 36 45 51 57 55 50 55
3 2 4 5 6 6 11 5 14 18 14 5 10 7 14 3 6 10 9 13 15 19 24 27 34 41 40 39 32 29 28 29 30 29 32 41 47 45 37 53 55 54 55 53
3 2 4 4 5 7 8 17 17 15 11 10 2 4 7 13 8 14 16 14 18 23 29 38 45 45 39 33 30 31 34 32 31 30 31 33 44 50 50 39 45 56 55 58
2 1 1 3 11 7 13 16 11 4 4 4 2 3 9 6 13 18 20 21 25 37 41 43 42 39 41 42 42 41 37 35 32 31 31 31 33 45 50 45 36 51 56 56
1 2 2 1 8 3 13 11 4 3 2 4 2 9 11 14 14 11 15 29 37 40 40 39 40 43 40 39 38 37 35 36 31 30 30 28 28 30 40 43 41 46 45 52
3 1 3 2 2 4 5 4 3 5 6 12 16 7 5 15 8 12 31 34 39 35 36 42 40 39 38 38 36 36 35 35 31 29 29 27 26 26 37 43 43 43 46 51
2 2 3 2 1 2 1 1 3 4 8 6 6 11 17 1 13 23 30 36 34 32 38 38 36 36 37 36 36 35 35 33 31 28 26 26 24 25 32 43 35 35 40 41
3 5 3 3 2 3 1 3 3 3 6 7 6 13 9 14 21 20 25 32 35 39 40 36 36 37 38 35 34 31 30 32 29 27 24 23 21 23 23 27 42 33 43 45
2 1 2 1 6 1 3 2 2 2 4 4 7 9 10 12 18 22 26 36 33 36 37 37 37 40 36 34 31 28 27 25 24 22 21 20 19 19 23 31 28 31 32 35
2 1 5 2 2 2 5 4 4 3 2 6 7 10 10 15 20 26 33 33 32 34 36 37 39 39 37 34 29 26 23 19 19 19 16 13 16 16 21 26 27 25 26 24
5 2 5 3 3 3 4 8 8 1 1 9 4 9 14 20 23 30 31 32 36 34 35 37 38 38 39 34 28 23 16 11 11 12 13 13 15 19 23 27 25 21 22 21
4 2 5 7 5 2 6 8 9 8 5 6 14 23 25 20 24 23 31 35 35 33 35 36 37 38 39 32 27 21 12 6 4 7 9 13 16 21 23 22 21 21 18 16
3 5 4 12 18 17 18 19 16 17 15 8 17 15 25 22 16 22 29 36 33 34 35 36 37 38 37 32 26 21 15 9 6 8 10 13 15 18 19 21 18 17 14 13
4 3 4 6 4 7 14 16 16 17 16 19 25 28 25 16 24 26 30 34 32 34 34 34 35 36 34 30 25 20 17 16 13 15 16 15 19 21 22 22 23 22 21 19
5 2 2 5 4 13 9 9 13 7 10 7 8 8 8 15 15 19 26 31 31 33 33 33 32 32 29 26 22 20 17 16 19 21 22 23 21 27 22 25 25 26 27 29
5 3 1 5 6 4 1 2 3 11 9 16 14 14 13 11 20 7 26 28 32 33 31 30 28 28 25 22 20 17 18 19 22 26 27 27 29 29 30 30 31 35 34 35
5 3 3 3 3 11 4 4 5 6 5 8 15 12 12 16 15 3 24 27 27 28 27 26 23 21 21 20 20 20 22 23 23 25 27 29 31 34 36 38 38 38 36 36
5 4 3 2 2 5 2 6 3 2 6 7 6 6 8 11 6 4 20 22 25 24 25 27 24 21 20 21 21 24 26 27 29 28 28 27 30 34 38 39 38 38 37 38
5 5 10 7 5 10 7 8 6 1 1 8 6 5 4 2 4 11 12 14 18 21 23 25 27 27 23 21 22 28 28 29 28 29 31 33 34 35 35 36 36 36 36 36
10 10 6 5 6 9 13 8 7 1 6 8 9 6 5 4 6 6 6 9 14 17 20 22 24 26 25 25 25 26 27 26 29 31 33 34 34 35 35 35 36 35 34 32
5 7 5 11 7 2 26 3 18 5 7 9 9 5 3 5 6 5 3 3 6 11 14 17 20 21 23 24 24 27 26 25 26 27 29 30 30 31 32 31 31 31 27 26
7 14 4 1 7 20 24 28 27 17 18 14 12 10 9 8 8 6 4 2 1 4 9 13 15 18 21 21 21 23 23 23 24 27 27 25 25 25 23 23 22 20 19 18
3 14 6 7 16 23 30 28 27 27 29 27 26 23 15 11 11 8 6 5 3 3 3 6 8 12 15 16 17 18 17 16 18 19 19 19 19 18 18 17 16 13 12 11
12 8 7 7 11 10 7 8 9 16 22 23 21 19 17 14 12 10 8 8 6 5 4 4 5 6 8 10 12 13 12 11 11 13 13 13 13 13 13 13 13 13 11 10
Wind_Direction
17 44 27 10 13 338 307 301 301 303 327 310 287 297 298 299 289 274 265 257 262 273 289 300 308 317 318 317 310 307 299 286 268 252 252 252 237 237 222 225 232 227 216 218
201 59 24 335 338 316 303 301 311 306 324 320 300 294 294 277 266 278 286 270 271 283 292 300 304 313 313 311 309 303 296 290 278 259 247 253 251 242 232 210 225 206 215 218
48 70 347 334 330 327 314 298 325 311 320 302 313 288 275 279 232 270 277 275 282 286 300 308 309 312 311 306 304 296 292 288 280 271 256 246 250 254 229 223 218 222 237 219
54 78 351 332 308 321 308 345 312 310 318 307 357 294 315 329 274 302 297 280 280 301 309 307 310 310 307 302 295 290 287 285 278 273 263 253 252 246 235 225 219 227 223 229
55 356 2 308 312 327 281 317 302 297 292 307 139 257 283 294 311 342 335 311 299 309 313 309 310 309 305 300 292 287 288 284 277 272 264 259 253 247 247 249 223 220 222 221
59 97 245 328 309 288 295 304 311 268 283 260 285 278 286 343 335 328 333 326 316 314 311 309 308 307 303 298 293 289 283 279 275 271 265 260 258 250 249 264 206 208 218 221
260 174 129 348 310 200 350 340 348 296 253 293 121 299 260 313 333 335 328 326 318 316 314 313 310 308 304 299 294 290 283 279 274 270 265 261 256 253 250 253 238 207 213 218
343 267 202 104 35 312 4 9 32 305 316 301 302 239 274 338 359 330 332 323 320 316 318 314 309 306 304 301 295 289 283 279 275 269 265 263 257 246 237 232 227 221 223 234
313 248 130 137 319 267 53 352 350 273 252 268 245 276 286 85 329 332 331 327 321 321 322 318 315 310 307 303 297 291 282 277 270 266 265 262 255 242 227 225 227 225 221 230
86 292 168 113 238 205 275 346 236 182 302 298 274 308 300 336 330 338 338 331 327 325 324 322 320 316 313 307 301 294 285 277 272 263 258 260 257 247 231 220 231 232 223 231
112 280 148 203 206 219 166 185 219 280 264 291 309 299 348 316 339 342 339 330 324 326 327 328 325 326 323 317 310 303 290 276 267 261 256 254 251 234 220 218 224 228 234 222
111 287 268 267 146 321 245 231 193 232 246 252 282 271 278 326 345 341 334 322 328 330 332 331 331 332 333 331 327 317 298 271 255 246 246 249 242 211 216 216 218 231 229 228
172 210 299 206 184 165 230 204 225 239 279 243 271 273 323 325 335 334 332 332 335 335 337 338 339 340 343 346 348 340 323 276 236 232 227 230 205 202 201 210 208 215 226 222
164 237 239 259 332 10 242 235 222 185 239 268 242 275 296 317 325 332 334 337 338 340 342 342 345 347 352 359 6 10 21 76 168 188 205 201 195 196 191 188 196 202 198 200
225 255 229 259 272 278 272 264 250 235 223 237 274 307 295 306 318 336 336 338 340 345 346 347 348 351 358 6 16 34 41 67 110 142 163 169 170 166 164 164 170 158 162 169
214 272 318 284 271 262 273 261 241 237 241 254 263 276 280 316 334 342 343 340 343 347 347 348 353 358 4 9 19 38 59 79 101 116 123 142 146 147 145 146 143 142 141 142
179 253 311 273 346 310 275 256 210 200 204 207 228 251 335 329 329 337 344 343 344 346 348 354 357 359 7 15 24 41 62 91 104 113 120 127 134 132 130 134 132 135 130 138
163 170 258 289 320 268 34 181 182 217 247 217 261 276 298 310 310 307 360 351 348 350 357 2 5 5 16 26 40 52 69 86 100 108 115 122 127 128 132 130 131 134 129 134
159 169 243 286 284 297 267 188 196 198 288 231 233 267 304 321 312 153 359 2 357 1 9 13 16 17 29 39 53 65 75 83 93 99 107 117 123 125 128 128 129 125 130 130
202 228 245 180 244 262 53 146 127 134 277 164 208 285 312 342 357 6 351 0 3 11 21 23 30 34 46 56 67 76 80 84 88 97 105 111 116 119 121 124 125 126 130 131
168 201 226 212 256 276 245 149 135 202 211 160 191 240 268 305 249 306 339 5 12 18 29 38 40 46 50 60 76 83 87 89 97 104 110 113 116 117 120 123 125 129 131 129
176 172 196 180 218 271 156 133 198 135 148 165 182 206 224 241 281 302 338 4 19 33 42 49 50 54 60 65 70 77 87 101 109 113 114 116 118 121 125 126 127 126 127 125
221 208 191 201 218 123 190 226 210 210 205 203 196 210 255 237 242 271 292 357 27 41 48 52 58 62 65 72 77 82 87 94 100 106 111 116 121 125 129 131 130 129 131 140
232 212 237 165 236 240 234 246 245 238 231 234 229 255 279 241 234 234 243 253 83 65 65 65 69 72 74 74 78 84 93 97 99 100 101 103 106 109 111 111 116 126 134 138
144 153 203 257 279 277 261 247 250 249 249 246 250 259 256 223 233 232 229 221 202 163 111 92 85 84 86 86 88 90 92 95 98 100 104 109 113 116 119 122 127 131 133 137
185 183 190 231 215 230 264 272 248 247 248 241 240 227 211 217 223 227 230 218 210 196 175 149 129 113 107 104 101 100 99 98 94 98 105 112 119 126 132 138 142 147 151 156